QPF
0.01 0.01 0.01 0.02 0.02 0.01 0.01 0.02 0.02 0.02 0.01 0.01 0.01 0.01 0.01 0.01 0.02 0.01 0.01 0.01 0.01 0.00 0.00 0.00 0.01 0.02 0.06 0.08 0.03 0.01 0.01 0.01 0.01 0.01 0.01 0.01 0.01 0.01
0.01 0.00 0.01 0.02 0.01 0.01 0.01 0.01 0.01 0.01 0.00 0.00 0.00 0.00 0.00 0.01 0.01 0.01 0.00 0.00 0.01 0.00 0.00 0.01 0.01 0.02 0.03 0.05 0.04 0.02 0.01 0.01 0.01 0.01 0.01 0.01 0.01 0.01
0.01 0.00 0.01 0.01 0.01 0.00 0.00 0.00 0.00 0.00 0.00 0.00 0.00 0.00 0.00 0.00 0.00 0.00 0.00 0.00 0.01 0.02 0.03 0.03 0.02 0.02 0.01 0.02 0.02 0.01 0.01 0.00 0.00 0.00 0.00 0.01 0.01 0.01
0.02 0.02 0.02 0.01 0.01 0.00 0.00 0.00 0.00 0.00 0.00 0.00 0.00 0.00 0.00 0.00 0.00 0.00 0.01 0.00 0.01 0.02 0.03 0.04 0.03 0.01 0.00 0.00 0.01 0.01 0.01 0.01 0.00 0.00 0.00 0.00 0.00 0.00
0.03 0.03 0.02 0.02 0.01 0.01 0.01 0.01 0.01 0.01 0.01 0.00 0.00 0.00 0.00 0.00 0.00 0.00 0.01 0.01 0.01 0.01 0.02 0.02 0.02 0.02 0.01 0.01 0.01 0.01 0.01 0.01 0.01 0.01 0.00 0.00 0.00 0.00
0.03 0.03 0.02 0.02 0.01 0.01 0.01 0.01 0.01 0.01 0.00 0.00 0.00 0.00 0.00 0.00 0.00 0.00 0.00 0.00 0.00 0.01 0.01 0.02 0.02 0.03 0.02 0.02 0.01 0.01 0.01 0.01 0.01 0.01 0.01 0.01 0.01 0.01
0.02 0.02 0.02 0.01 0.01 0.01 0.01 0.01 0.00 0.00 0.00 0.00 0.00 0.00 0.00 0.00 0.00 0.00 0.00 0.00 0.00 0.00 0.01 0.01 0.01 0.01 0.01 0.01 0.01 0.01 0.01 0.01 0.01 0.01 0.01 0.02 0.02 0.01
0.01 0.01 0.01 0.01 0.00 0.00 0.00 0.00 0.00 0.00 0.00 0.00 0.00 0.00 0.00 0.00 0.00 0.00 0.00 0.00 0.00 0.00 0.00 0.00 0.01 0.01 0.01 0.01 0.01 0.01 0.00 0.00 0.01 0.01 0.01 0.01 0.02 0.02
0.00 0.01 0.01 0.00 0.00 0.00 0.00 0.00 0.00 0.00 0.00 0.00 0.00 0.00 0.00 0.00 0.00 0.00 0.00 0.00 0.00 0.00 0.00 0.00 0.00 0.00 0.01 0.01 0.01 0.01 0.01 0.01 0.00 0.01 0.01 0.01 0.01 0.01
0.00 0.00 0.00 0.00 0.00 0.00 0.00 0.00 0.00 0.00 0.00 0.00 0.00 0.00 0.00 0.00 0.00 0.00 0.00 0.00 0.00 0.00 0.00 0.00 0.00 0.00 0.00 0.00 0.00 0.01 0.01 0.01 0.01 0.01 0.01 0.01 0.01 0.01
0.00 0.00 0.00 0.00 0.00 0.00 0.00 0.00 0.00 0.00 0.00 0.00 0.00 0.00 0.00 0.00 0.00 0.00 0.00 0.00 0.00 0.00 0.00 0.00 0.00 0.00 0.00 0.00 0.00 0.00 0.00 0.00 0.00 0.00 0.01 0.01 0.01 0.01
0.00 0.00 0.00 0.01 0.01 0.00 0.00 0.00 0.00 0.00 0.00 0.00 0.00 0.00 0.00 0.00 0.00 0.00 0.00 0.00 0.00 0.00 0.00 0.00 0.00 0.00 0.00 0.00 0.00 0.00 0.00 0.00 0.00 0.00 0.00 0.00 0.01 0.01
0.00 0.00 0.01 0.01 0.01 0.01 0.01 0.00 0.00 0.00 0.00 0.00 0.00 0.00 0.00 0.00 0.00 0.00 0.00 0.00 0.00 0.00 0.00 0.00 0.00 0.00 0.00 0.00 0.00 0.00 0.00 0.00 0.00 0.00 0.00 0.01 0.01 0.01
0.01 0.01 0.01 0.01 0.01 0.01 0.01 0.00 0.00 0.00 0.00 0.00 0.00 0.00 0.00 0.00 0.00 0.00 0.00 0.00 0.00 0.00 0.00 0.00 0.00 0.00 0.01 0.01 0.00 0.00 0.00 0.00 0.00 0.01 0.01 0.01 0.01 0.02
0.01 0.01 0.01 0.01 0.01 0.01 0.00 0.00 0.00 0.00 0.00 0.00 0.00 0.00 0.01 0.01 0.01 0.01 0.00 0.00 0.00 0.01 0.01 0.00 0.00 0.00 0.01 0.01 0.01 0.00 0.00 0.00 0.01 0.01 0.01 0.02 0.02 0.02
0.01 0.01 0.01 0.01 0.01 0.01 0.01 0.01 0.00 0.00 0.00 0.00 0.00 0.01 0.01 0.01 0.01 0.01 0.02 0.02 0.02 0.01 0.01 0.00 0.00 0.01 0.01 0.01 0.01 0.00 0.00 0.01 0.01 0.01 0.01 0.02 0.02 0.02
0.03 0.02 0.02 0.02 0.01 0.01 0.01 0.01 0.01 0.01 0.01 0.01 0.01 0.01 0.01 0.01 0.01 0.02 0.02 0.02 0.02 0.02 0.01 0.01 0.01 0.01 0.01 0.01 0.01 0.01 0.00 0.00 0.01 0.01 0.02 0.02 0.02 0.02
0.04 0.04 0.02 0.02 0.02 0.01 0.01 0.01 0.01 0.01 0.01 0.01 0.01 0.01 0.01 0.01 0.01 0.01 0.01 0.01 0.01 0.01 0.01 0.01 0.01 0.02 0.02 0.01 0.01 0.01 0.00 0.00 0.00 0.01 0.01 0.02 0.02 0.02
0.01 0.01 0.01 0.01 0.01 0.01 0.01 0.02 0.01 0.02 0.02 0.01 0.01 0.01 0.01 0.01 0.01 0.01 0.01 0.01 0.01 0.01 0.01 0.01 0.01 0.02 0.03 0.02 0.01 0.01 0.01 0.01 0.01 0.01 0.01 0.02 0.02 0.02
0.01 0.01 0.01 0.01 0.01 0.01 0.01 0.00 0.00 0.01 0.01 0.01 0.01 0.01 0.01 0.01 0.01 0.01 0.01 0.01 0.01 0.01 0.01 0.01 0.01 0.02 0.03 0.03 0.02 0.01 0.01 0.01 0.01 0.01 0.01 0.01 0.01 0.01
0.01 0.01 0.01 0.00 0.00 0.00 0.00 0.00 0.00 0.00 0.01 0.00 0.00 0.00 0.00 0.01 0.01 0.01 0.01 0.01 0.01 0.01 0.01 0.01 0.01 0.01 0.01 0.02 0.02 0.01 0.01 0.01 0.02 0.01 0.01 0.01 0.01 0.01
0.00 0.01 0.01 0.01 0.01 0.01 0.01 0.01 0.01 0.01 0.01 0.01 0.01 0.00 0.00 0.00 0.00 0.00 0.00 0.00 0.01 0.01 0.01 0.01 0.01 0.01 0.01 0.02 0.02 0.01 0.01 0.01 0.01 0.01 0.01 0.01 0.01 0.01
0.02 0.01 0.01 0.01 0.01 0.01 0.01 0.01 0.01 0.01 0.01 0.01 0.01 0.01 0.01 0.01 0.01 0.00 0.00 0.00 0.00 0.00 0.01 0.01 0.01 0.01 0.01 0.01 0.01 0.02 0.02 0.01 0.01 0.01 0.01 0.01 0.01 0.01
MSLP
1024.73 1024.82 1024.90 1024.98 1025.06 1025.15 1025.26 1025.41 1025.59 1025.80 1026.04 1026.27 1026.48 1026.63 1026.70 1026.67 1026.54 1026.32 1026.02 1025.68 1025.32 1024.98 1024.69 1024.44 1024.24 1024.08 1023.94 1023.81 1023.67 1023.51 1023.34 1023.15 1022.95 1022.74 1022.53 1022.30 1022.05 1021.78
1025.23 1025.28 1025.30 1025.30 1025.29 1025.31 1025.35 1025.44 1025.58 1025.78 1026.02 1026.27 1026.51 1026.69 1026.80 1026.79 1026.68 1026.46 1026.16 1025.80 1025.44 1025.09 1024.77 1024.52 1024.31 1024.14 1024.00 1023.87 1023.72 1023.56 1023.37 1023.18 1022.97 1022.75 1022.53 1022.31 1022.07 1021.80
1025.70 1025.72 1025.71 1025.66 1025.61 1025.56 1025.55 1025.59 1025.71 1025.89 1026.13 1026.39 1026.65 1026.85 1026.97 1026.99 1026.89 1026.68 1026.38 1026.02 1025.65 1025.29 1024.97 1024.70 1024.49 1024.31 1024.15 1024.00 1023.84 1023.65 1023.45 1023.23 1023.00 1022.77 1022.53 1022.30 1022.06 1021.80
1026.08 1026.11 1026.09 1026.02 1025.94 1025.87 1025.83 1025.85 1025.95 1026.11 1026.34 1026.61 1026.87 1027.09 1027.22 1027.25 1027.16 1026.96 1026.67 1026.32 1025.94 1025.58 1025.26 1024.98 1024.75 1024.55 1024.38 1024.20 1024.01 1023.79 1023.56 1023.30 1023.04 1022.78 1022.53 1022.28 1022.03 1021.77
1026.33 1026.39 1026.40 1026.35 1026.28 1026.21 1026.17 1026.18 1026.26 1026.41 1026.63 1026.89 1027.14 1027.36 1027.50 1027.54 1027.46 1027.27 1026.99 1026.65 1026.29 1025.93 1025.60 1025.31 1025.07 1024.85 1024.64 1024.43 1024.20 1023.94 1023.66 1023.37 1023.07 1022.78 1022.50 1022.23 1021.97 1021.71
1026.48 1026.58 1026.63 1026.62 1026.58 1026.53 1026.50 1026.51 1026.59 1026.73 1026.93 1027.17 1027.41 1027.61 1027.75 1027.80 1027.73 1027.56 1027.30 1026.99 1026.64 1026.29 1025.96 1025.66 1025.39 1025.14 1024.90 1024.64 1024.37 1024.06 1023.74 1023.40 1023.06 1022.74 1022.44 1022.16 1021.89 1021.63
1026.54 1026.68 1026.78 1026.82 1026.82 1026.81 1026.80 1026.81 1026.88 1027.01 1027.18 1027.39 1027.61 1027.80 1027.94 1027.99 1027.94 1027.80 1027.57 1027.28 1026.96 1026.62 1026.30 1025.99 1025.70 1025.41 1025.12 1024.82 1024.49 1024.13 1023.76 1023.38 1023.01 1022.66 1022.34 1022.05 1021.78 1021.53
1026.53 1026.72 1026.86 1026.95 1026.99 1027.01 1027.02 1027.04 1027.10 1027.20 1027.35 1027.54 1027.73 1027.91 1028.04 1028.10 1028.08 1027.97 1027.78 1027.53 1027.23 1026.92 1026.60 1026.27 1025.96 1025.63 1025.29 1024.94 1024.56 1024.15 1023.74 1023.33 1022.93 1022.56 1022.22 1021.93 1021.67 1021.43
1026.49 1026.70 1026.88 1027.01 1027.09 1027.13 1027.15 1027.18 1027.23 1027.31 1027.44 1027.60 1027.77 1027.94 1028.07 1028.15 1028.16 1028.08 1027.94 1027.73 1027.47 1027.17 1026.85 1026.52 1026.17 1025.81 1025.43 1025.02 1024.59 1024.15 1023.69 1023.25 1022.83 1022.45 1022.11 1021.82 1021.56 1021.33
1026.42 1026.65 1026.85 1027.00 1027.11 1027.17 1027.21 1027.24 1027.29 1027.36 1027.47 1027.61 1027.77 1027.94 1028.08 1028.18 1028.22 1028.19 1028.08 1027.91 1027.68 1027.40 1027.09 1026.74 1026.37 1025.97 1025.55 1025.10 1024.63 1024.15 1023.67 1023.20 1022.77 1022.38 1022.04 1021.74 1021.49 1021.26
1026.33 1026.57 1026.78 1026.95 1027.08 1027.16 1027.21 1027.26 1027.31 1027.38 1027.49 1027.63 1027.79 1027.97 1028.12 1028.24 1028.31 1028.31 1028.24 1028.10 1027.89 1027.63 1027.31 1026.96 1026.56 1026.14 1025.68 1025.20 1024.70 1024.20 1023.70 1023.22 1022.77 1022.37 1022.02 1021.72 1021.46 1021.23
1026.21 1026.46 1026.68 1026.87 1027.02 1027.13 1027.20 1027.27 1027.35 1027.44 1027.56 1027.71 1027.89 1028.07 1028.24 1028.38 1028.46 1028.49 1028.43 1028.31 1028.11 1027.84 1027.52 1027.15 1026.74 1026.30 1025.83 1025.33 1024.82 1024.30 1023.79 1023.31 1022.86 1022.45 1022.09 1021.77 1021.48 1021.22
1026.06 1026.32 1026.56 1026.77 1026.95 1027.09 1027.21 1027.32 1027.44 1027.56 1027.72 1027.89 1028.08 1028.28 1028.45 1028.59 1028.68 1028.70 1028.64 1028.51 1028.31 1028.03 1027.70 1027.32 1026.90 1026.45 1025.97 1025.47 1024.96 1024.45 1023.95 1023.46 1023.01 1022.58 1022.20 1021.85 1021.53 1021.23
1025.86 1026.15 1026.43 1026.68 1026.90 1027.09 1027.27 1027.44 1027.60 1027.78 1027.97 1028.17 1028.38 1028.58 1028.75 1028.87 1028.94 1028.93 1028.85 1028.69 1028.45 1028.16 1027.81 1027.43 1027.01 1026.56 1026.09 1025.61 1025.11 1024.62 1024.12 1023.64 1023.18 1022.75 1022.34 1021.96 1021.59 1021.24
1025.62 1025.96 1026.28 1026.59 1026.87 1027.13 1027.37 1027.61 1027.84 1028.08 1028.31 1028.54 1028.76 1028.95 1029.09 1029.17 1029.19 1029.13 1029.00 1028.79 1028.52 1028.20 1027.83 1027.44 1027.03 1026.59 1026.15 1025.69 1025.23 1024.76 1024.28 1023.81 1023.35 1022.90 1022.47 1022.05 1021.63 1021.23
1025.35 1025.75 1026.13 1026.50 1026.86 1027.19 1027.51 1027.82 1028.13 1028.42 1028.69 1028.94 1029.16 1029.32 1029.42 1029.45 1029.40 1029.27 1029.07 1028.80 1028.48 1028.13 1027.75 1027.35 1026.95 1026.54 1026.13 1025.71 1025.28 1024.84 1024.39 1023.93 1023.46 1023.00 1022.54 1022.09 1021.64 1021.18
1025.06 1025.53 1025.98 1026.42 1026.85 1027.26 1027.66 1028.04 1028.41 1028.75 1029.06 1029.32 1029.52 1029.65 1029.69 1029.66 1029.53 1029.32 1029.05 1028.72 1028.35 1027.97 1027.58 1027.19 1026.80 1026.43 1026.05 1025.66 1025.27 1024.85 1024.42 1023.97 1023.51 1023.03 1022.56 1022.07 1021.59 1021.11
1024.75 1025.28 1025.80 1026.31 1026.81 1027.29 1027.76 1028.21 1028.63 1029.02 1029.35 1029.61 1029.79 1029.88 1029.87 1029.77 1029.57 1029.29 1028.95 1028.57 1028.17 1027.76 1027.37 1026.99 1026.63 1026.28 1025.94 1025.59 1025.22 1024.83 1024.41 1023.96 1023.49 1023.00 1022.51 1022.01 1021.51 1021.01
1024.41 1025.01 1025.59 1026.16 1026.72 1027.26 1027.79 1028.29 1028.76 1029.17 1029.52 1029.78 1029.95 1030.00 1029.95 1029.79 1029.53 1029.20 1028.82 1028.41 1027.99 1027.58 1027.19 1026.83 1026.50 1026.18 1025.86 1025.53 1025.17 1024.79 1024.37 1023.92 1023.44 1022.94 1022.44 1021.93 1021.43 1020.93
1024.05 1024.70 1025.33 1025.94 1026.55 1027.14 1027.71 1028.25 1028.75 1029.19 1029.55 1029.82 1029.97 1030.01 1029.92 1029.73 1029.45 1029.10 1028.70 1028.28 1027.87 1027.47 1027.11 1026.77 1026.46 1026.17 1025.86 1025.54 1025.19 1024.80 1024.36 1023.89 1023.40 1022.88 1022.37 1021.86 1021.36 1020.87
1023.64 1024.33 1025.00 1025.65 1026.28 1026.91 1027.51 1028.08 1028.61 1029.07 1029.44 1029.72 1029.87 1029.91 1029.83 1029.64 1029.36 1029.01 1028.63 1028.23 1027.85 1027.48 1027.15 1026.84 1026.56 1026.28 1025.98 1025.65 1025.29 1024.87 1024.42 1023.92 1023.40 1022.87 1022.34 1021.82 1021.33 1020.85
1023.20 1023.91 1024.60 1025.27 1025.93 1026.57 1027.20 1027.79 1028.34 1028.82 1029.21 1029.51 1029.68 1029.74 1029.68 1029.52 1029.27 1028.96 1028.62 1028.27 1027.93 1027.61 1027.32 1027.04 1026.78 1026.50 1026.21 1025.87 1025.48 1025.04 1024.55 1024.02 1023.47 1022.92 1022.37 1021.85 1021.36 1020.90
1022.72 1023.44 1024.14 1024.82 1025.49 1026.15 1026.79 1027.41 1027.97 1028.48 1028.90 1029.22 1029.43 1029.52 1029.51 1029.39 1029.20 1028.95 1028.67 1028.38 1028.10 1027.83 1027.58 1027.33 1027.09 1026.82 1026.52 1026.16 1025.75 1025.28 1024.76 1024.20 1023.62 1023.05 1022.49 1021.96 1021.47 1021.02
Thickness
5660 5659 5657 5656 5656 5654 5652 5650 5646 5641 5639 5640 5641 5643 5643 5644 5644 5643 5643 5642 5641 5640 5640 5639 5638 5637 5636 5635 5634 5633 5632 5631 5630 5630 5629 5629 5629 5628
5657 5656 5654 5653 5652 5651 5650 5648 5646 5643 5637 5636 5637 5638 5639 5639 5639 5639 5638 5637 5636 5635 5634 5633 5631 5630 5629 5628 5627 5626 5625 5624 5623 5622 5621 5621 5620 5619
5654 5653 5652 5650 5649 5648 5646 5644 5642 5640 5636 5633 5633 5634 5634 5634 5634 5634 5633 5632 5630 5629 5628 5626 5625 5623 5622 5621 5620 5619 5618 5616 5615 5614 5613 5612 5612 5611
5651 5650 5649 5649 5646 5645 5643 5641 5639 5638 5635 5631 5629 5629 5629 5629 5628 5628 5627 5626 5624 5623 5622 5620 5618 5616 5614 5613 5612 5611 5609 5608 5607 5606 5605 5604 5603 5602
5649 5647 5646 5645 5643 5642 5640 5638 5636 5635 5632 5629 5625 5624 5623 5623 5622 5621 5621 5619 5618 5617 5615 5613 5611 5609 5607 5605 5604 5602 5601 5600 5599 5597 5596 5595 5594 5593
5647 5645 5643 5642 5641 5639 5638 5635 5633 5631 5628 5625 5621 5619 5618 5617 5615 5614 5613 5612 5611 5609 5607 5605 5603 5601 5599 5597 5596 5594 5593 5591 5590 5588 5588 5587 5585 5584
5643 5642 5641 5640 5639 5637 5635 5632 5630 5627 5623 5620 5617 5614 5612 5611 5609 5608 5606 5605 5604 5602 5600 5598 5596 5594 5591 5589 5587 5586 5584 5583 5581 5580 5579 5578 5576 5575
5640 5638 5638 5637 5636 5635 5633 5630 5628 5624 5619 5616 5612 5610 5608 5607 5604 5602 5599 5598 5597 5595 5592 5591 5589 5586 5584 5582 5580 5578 5576 5575 5573 5571 5570 5569 5567 5566
5637 5635 5635 5633 5632 5630 5628 5627 5624 5621 5619 5615 5610 5607 5605 5604 5600 5597 5594 5592 5590 5588 5585 5584 5582 5579 5578 5575 5573 5571 5568 5567 5565 5563 5562 5560 5558 5556
5634 5632 5630 5629 5628 5625 5623 5620 5618 5616 5614 5611 5609 5606 5603 5600 5597 5594 5590 5586 5584 5581 5578 5576 5575 5572 5572 5569 5566 5563 5561 5559 5557 5555 5553 5551 5549 5547
5629 5628 5626 5625 5624 5622 5618 5614 5612 5610 5608 5606 5604 5601 5598 5595 5591 5587 5583 5579 5577 5575 5570 5568 5567 5565 5564 5562 5560 5557 5554 5552 5549 5547 5545 5543 5540 5538
5625 5624 5623 5621 5619 5617 5614 5610 5606 5605 5602 5600 5597 5595 5592 5588 5585 5581 5578 5573 5570 5567 5565 5561 5559 5556 5556 5555 5552 5549 5547 5545 5542 5539 5537 5534 5532 5530
5620 5619 5618 5617 5615 5612 5609 5606 5604 5600 5596 5594 5590 5587 5584 5581 5578 5575 5572 5568 5564 5561 5559 5554 5551 5547 5545 5545 5544 5541 5539 5536 5534 5531 5529 5526 5524 5521
5617 5615 5613 5611 5609 5607 5604 5601 5598 5594 5590 5586 5583 5579 5576 5574 5572 5568 5565 5562 5559 5556 5552 5548 5544 5541 5537 5536 5535 5533 5530 5527 5525 5523 5520 5518 5515 5512
5612 5610 5608 5605 5603 5600 5597 5594 5591 5586 5582 5578 5575 5572 5570 5567 5564 5561 5558 5554 5551 5548 5545 5541 5538 5534 5530 5528 5526 5523 5521 5519 5516 5513 5511 5508 5505 5503
5606 5603 5601 5598 5595 5592 5589 5585 5582 5579 5575 5571 5568 5565 5562 5559 5556 5553 5550 5547 5543 5541 5537 5534 5530 5527 5523 5520 5517 5515 5511 5509 5507 5504 5501 5498 5496 5493
5599 5595 5591 5588 5585 5582 5580 5577 5574 5571 5567 5563 5560 5557 5554 5551 5548 5545 5541 5538 5535 5532 5529 5526 5522 5519 5515 5512 5509 5506 5503 5500 5497 5494 5491 5489 5488 5485
5592 5587 5584 5581 5578 5575 5572 5569 5566 5563 5560 5557 5553 5550 5547 5544 5541 5538 5534 5530 5527 5524 5520 5516 5513 5510 5508 5505 5502 5499 5495 5492 5489 5485 5482 5479 5479 5478
5584 5580 5577 5574 5572 5569 5566 5563 5560 5557 5554 5550 5547 5544 5541 5537 5534 5530 5526 5522 5519 5515 5512 5507 5503 5500 5499 5499 5497 5491 5487 5485 5480 5477 5473 5471 5470 5470
5576 5573 5570 5568 5565 5562 5559 5556 5553 5550 5546 5543 5540 5537 5534 5531 5527 5523 5519 5515 5512 5507 5503 5499 5495 5493 5490 5489 5487 5485 5481 5477 5473 5470 5467 5464 5462 5461
5568 5566 5563 5560 5558 5555 5553 5550 5547 5543 5540 5537 5534 5530 5527 5523 5519 5516 5512 5508 5504 5500 5496 5493 5490 5486 5482 5478 5477 5476 5473 5470 5467 5463 5460 5457 5455 5453
5561 5559 5556 5553 5551 5548 5545 5542 5539 5536 5533 5530 5527 5523 5520 5516 5512 5508 5504 5500 5497 5493 5490 5485 5481 5477 5473 5471 5470 5468 5465 5463 5460 5457 5453 5450 5447 5446
5554 5552 5549 5546 5543 5540 5538 5535 5532 5529 5526 5523 5520 5516 5513 5509 5505 5501 5497 5493 5489 5485 5481 5477 5472 5469 5466 5463 5461 5459 5457 5454 5452 5449 5447 5444 5441 5439